Regional Weather Roundup
Issued by NWS

Home | Current Version | Previous Version | Graphics & Text | Print | Product List | Glossary On
Versions: 1 2 3 4 5 6 7 8 9 10 11 12 13 14 15 16 17 18 19 20 21 22 23 24 25 26 27 28 29 30 31 32 33 34 35 36 37 38 39 40 41 42 43 44 45 46 47 48 49 50
000
ASUS45 KTFX 031510
RWRMT
MONTANA REGIONAL WEATHER ROUNDUP
NATIONAL WEATHER SERVICE GREAT FALLS MT
900 AM MDT FRI JUL 03 2015

NOTE: "FAIR" INDICATES FEW OR NO CLOUDS BELOW 12000 FEET WITH NO
SIGNIFICANT WEATHER AND/OR OBSTRUCTIONS TO VISIBILITY.

MTZ001>007-043-031600-
WEST OF THE DIVIDE

CITY           SKY/WX    TMP DP  RH WIND       PRES   REMARKS
KALISPELL      SUNNY     72  51  47 N5        29.98R
MISSOULA       SUNNY     68  47  46 E3        30.03S
BUTTE          SUNNY     65  46  50 E5        30.14F
MULLAN PASS    SUNNY     70  39  32 N3        30.17S
DEER LODGE       N/A     72  48  43 CALM      30.13S
EUREKA           N/A     72  48  43 CALM      29.98S
HAMILTON         N/A     70  43  37 SW7       30.04S
PLAINS           N/A     70  49  47 CALM      29.99S
RONAN            N/A     76  58  53 CALM      30.03S
THOMPSON FALLS   N/A     70  47  43 CALM      30.02S
$$

MTZ008-052>055-031600-
SOUTHWEST MONTANA

CITY           SKY/WX    TMP DP  RH WIND       PRES   REMARKS
BOZEMAN        SUNNY     69  50  50 CALM      30.07F
DILLON         SUNNY     66  48  52 SW8       30.11S
W YELLOWSTONE  SUNNY     61  45  55 NE3       30.22S
THREE FORKS      N/A     71  68  90 CALM      30.06S
$$

MTZ009-010-012-014-046-048-049-054-031600-
EAST SLOPES AND CENTRAL MONTANA

CITY           SKY/WX    TMP DP  RH WIND       PRES   REMARKS
CUT BANK       SUNNY     70  52  52 CALM      29.99F
GREAT FALLS    SUNNY     76  51  41 S7        30.00F
MALMSTROM AFB  SUNNY     73  51  45 SW5       30.00S
HELENA         SUNNY     73  49  42 CALM      30.03F
CONRAD           N/A     71  61  70 CALM      30.01F
$$

MTZ011-013-016-021-045-047-050-051-031600-
NORTH CENTRAL MONTANA

CITY           SKY/WX    TMP DP  RH WIND       PRES   REMARKS
HAVRE          SUNNY     73  54  51 CALM      29.96S HAZE
LEWISTOWN      SUNNY     75  53  46 E5        30.05S
CHINOOK          N/A     72  57  60 E8        29.96S
FORT BENTON      N/A     72  57  60 CALM      29.98F
$$

MTZ017>020-022>027-061-062-031600-
NORTHEAST MONTANA

CITY           SKY/WX    TMP DP  RH WIND       PRES   REMARKS
GLASGOW        SUNNY     70  58  65 SE9       29.99F HAZE
JORDAN           N/A     69  56  62 CALM      30.01F
SIDNEY         SUNNY     68  61  77 CALM      30.02S
WOLF POINT     SUNNY     69  61  75 E6        30.01S HAZE
MALTA            N/A     71  59  66 CALM      29.95F
PLENTYWOOD       N/A     70  63  78 CALM      30.02F
POPLAR           N/A     70  64  83 NE5       30.01S
SCOBEY           N/A     62  58  87 CALM      30.01S
$$

MTZ028>42-056>058-031600-
SOUTHCENTRAL AND SOUTHEAST MONTANA

CITY           SKY/WX    TMP DP  RH WIND       PRES   REMARKS
BAKER          SUNNY     72  60  66 SE6       30.05F
BILLINGS       SUNNY     69  53  56 S5        30.06S
LIVINGSTON     SUNNY     68  51  54 CALM      30.09F
MILES CITY     SUNNY     70  56  61 E3        30.02S
EKALAKA          N/A     74  59  59 E6        30.04F
FORSYTH          N/A     72  61  68 CALM      30.01F
LAUREL           N/A     68  50  52 CALM      30.04S
ROUNDUP          N/A     68  52  56 SW5       29.96S
$$

REGIONAL REPORTS...DAKOTAS

CITY           SKY/WX    TMP DP  RH WIND       PRES   REMARKS
WILLISTON      SUNNY     71  62  73 N3        30.01S HAZE
MINOT          CLOUDY    70  63  78 CALM      29.99F HAZE
DICKINSON      SUNNY     74  62  66 VRB3      30.03R HAZE
BEACH          FAIR      72  66  83 CALM      30.05S HAZE
CROSBY         FAIR      68  68 100 SW3       30.02S FOG
BISMARCK       PTSUNNY   72  64  76 CALM      30.01S HAZE
GRAND FORKS    HAZE      73  67  81 W3        29.93S VSB 1
FARGO          PTSUNNY   72  65  78 CALM      29.94S HAZE
BUFFALO SD       N/A     72  60  66 S3        30.01S
RAPID CITY     SUNNY     70  61  73 S6        30.09S
$$

REGIONAL REPORTS...WYOMING/IDAHO/WASHINGTON

CITY           SKY/WX    TMP DP  RH WIND       PRES   REMARKS
GILLETTE       SUNNY     73  54  51 S12       30.10S
SHERIDAN       SUNNY     68  56  65 CALM      30.08S
BUFFALO WY     SUNNY     72  54  53 N8        30.13S
CODY           SUNNY     72  54  53 N6        30.12S
YELLOWSTONE LA   N/A     60  49  66 CALM      30.32S
IDAHO FALLS    SUNNY     69  49  48 S7        30.07S
SALMON         SUNNY     64  45  48 CALM      30.05F
BOISE          SUNNY     79  45  29 SW3       29.94R
SPOKANE        MOSUNNY   76  52  43 E5        29.94S
$$

REGIONAL REPORTS...ALBERTA

CITY           SKY/WX    TMP DP  RH WIND       PRES   REMARKS
EDMONTON       SUNNY     73  57  56 NW8       29.83S
CALGARY        MOSUNNY   75  50  41 W8        29.95F
LETHBRIDGE     PTSUNNY   72  57  60 W8        29.93S
MEDICINE HAT   PTSUNNY   79  55  44 S8        29.91S SMOKE
WATERTON GATE    N/A     73  52  46 S9          N/A
CARDSTON         N/A     72  57  60 E2          N/A
MILK RIVER       N/A     73  54  49 S9          N/A
ONEFOUR          N/A     72  54  53 SE8         N/A
$$

REGIONAL REPORTS...SASKATCHEWAN

CITY           SKY/WX    TMP DP  RH WIND       PRES   REMARKS
SWIFT CURRENT  SUNNY     72  61  68 S12G17    29.97F HAZE
REGINA         MOSUNNY   70  63  78 SE7       29.99S SMOKE
SASKATOON      PTSUNNY   73  59  60 SW7       29.93F
CYPRESS HILLS    N/A     68  54  60 S7          N/A
VAL MARIE        N/A     73  59  60 S7          N/A
ASSINIBOIA       N/A     73  63  68 S6          N/A
$$


USA.gov is the U.S. government's official web portal to all federal, state and local government web resources and services.